This is the latest recevied weather packets stored in our database for station/object N5ZP. If no packets are shown the sender has not sent any weather packets the latest 1 day(s).
| Time | Temp. | Humidity | Pressure | Rain* | Wind** | Luminosity | Snow |
|---|---|---|---|---|---|---|---|
| 1836274594 | 26.11° C | 68% | 1013.3 hPa | 0 mm | 0.89 m/s, 200° | 0 W/m² | - |
| 1836274447 | 26.11° C | 68% | 1013.1 hPa | 0 mm | 0 m/s | 0 W/m² | - |
| 1836274292 | 26.11° C | 69% | 1013 hPa | 0 mm | 0 m/s | 0 W/m² | - |
| 1836274145 | 26.11° C | 68% | 1013 hPa | 0 mm | 0 m/s | 0 W/m² | - |
| 1836273991 | 25.56° C | 70% | 1013.2 hPa | 0 mm | 0.45 m/s, 218° | 0 W/m² | - |
| 1778047574 | 15° C | 80% | 1007.2 hPa | 0 mm | 0.89 m/s, 265° | 0 W/m² | - |
| 1778047256 | 15° C | 79% | 1007.3 hPa | 0 mm | 3.58 m/s, 26° | 0 W/m² | - |
| 1778046954 | 15° C | 79% | 1007.1 hPa | 0 mm | 1.79 m/s, 339° | 0 W/m² | - |
| 1778046650 | 15° C | 79% | 1007.3 hPa | 0 mm | 1.34 m/s, 346° | 0 W/m² | - |
| 1778046347 | 15° C | 79% | 1007.5 hPa | 0 mm | 2.24 m/s, 19° | 0 W/m² | - |
| 1778046043 | 15° C | 79% | 1007.1 hPa | 0 mm | 3.13 m/s, 0° | 0 W/m² | - |
| 1778045741 | 15° C | 79% | 1007.1 hPa | 0 mm | 2.68 m/s, 15° | 0 W/m² | - |
| 1778045439 | 15° C | 79% | 1007 hPa | 0 mm | 1.34 m/s, 246° | 0 W/m² | - |
| 1778045137 | 15.56° C | 78% | 1007.1 hPa | 0 mm | 3.58 m/s, 351° | 0 W/m² | - |
| 1778044835 | 15.56° C | 79% | 1007.3 hPa | 0 mm | 1.34 m/s, 11° | 0 W/m² | - |
| 1778044532 | 15.56° C | 79% | 1007.2 hPa | 0 mm | 1.34 m/s, 272° | 0 W/m² | - |
| 1778044228 | 15.56° C | 78% | 1007.5 hPa | 0 mm | 1.34 m/s, 17° | 0 W/m² | - |
| 1778043926 | 15.56° C | 78% | 1007.5 hPa | 0 mm | 1.34 m/s, 343° | 0 W/m² | - |
| 1778043624 | 15.56° C | 78% | 1007.3 hPa | 0 mm | 2.68 m/s, 347° | 0 W/m² | - |
| 1778043320 | 15.56° C | 78% | 1007.3 hPa | 0 mm | 2.24 m/s, 353° | 0 W/m² | - |
| 1778043017 | 16.11° C | 78% | 1007.3 hPa | 0 mm | 2.24 m/s, 12° | 0 W/m² | - |
| 1778042715 | 16.11° C | 78% | 1007.3 hPa | 0 mm | 1.34 m/s, 308° | 0 W/m² | - |
| 1778042411 | 16.11° C | 78% | 1007.5 hPa | 0 mm | 1.34 m/s, 338° | 0 W/m² | - |
| 1778042108 | 16.11° C | 78% | 1007.3 hPa | 0 mm | 2.68 m/s, 311° | 0 W/m² | - |
| 1778041807 | 16.11° C | 78% | 1007.3 hPa | 0 mm | 2.68 m/s, 1° | 0 W/m² | - |
* Rain latest hour (hover to see other rain measurements)
** Current wind speed in m/s (hover to see current wind gust speed)